Location: Helstorf
(52.5868°N, 9.5862°E)
Time: 10:45:30
(UTC+00:00)

Ariane Rocket - Pass Details

Date: 15 May 2026
Orbit: 755 x 763 km, 98.4° (Epoch: 6 June)

Event Time Altitude Azimuth Distance (km) Brightness Sun altitude
Exits shadow 20:59:02 14° 174° (S) 2,041 4.7 -12.3°
Maximum altitude 21:03:26 70° 256° (WSW) 813 3.2 -12.7°
Drops below altitude 10° 21:08:31 10° 341° (NNW) 2,310 6.9 -13.1°
Sets 21:10:51 0° 344° (NNW) 3,241 7.9 -13.2°
